This is the latest recevied weather packets stored in our database for station/object EA5AFP-10. If no packets are shown the sender has not sent any weather packets the latest 1 day(s).
| Time | Temp. | Humidity | Pressure | Rain* | Wind** | Luminosity | Snow |
|---|---|---|---|---|---|---|---|
| 1777999541 | 23.33° C | 6% | - | 0 mm | 0.89 m/s, 90° | - | - |
| 1777999283 | 23.33° C | 6% | - | 0 mm | 1.79 m/s, 90° | - | - |
| 1777998970 | 22.78° C | 6% | - | 0 mm | 1.79 m/s, 90° | - | - |
| 1777998701 | 22.78° C | 6% | - | 0 mm | 2.68 m/s, 112° | - | - |
| 1777998439 | 22.78° C | 6% | - | 0 mm | 1.79 m/s, 67° | - | - |
| 1777998439 | 22.78° C | 6% | - | 0 mm | 1.79 m/s, 67° | - | - |
| 1777998436 | 22.78° C | 6% | - | 0 mm | 1.79 m/s, 67° | - | - |
| 1777998278 | 22.78° C | 6% | - | 0 mm | 2.24 m/s, 90° | - | - |
| 1777998013 | 22.22° C | 6% | - | 0 mm | 2.24 m/s, 90° | - | - |
| 1777997732 | 22.22° C | 6% | - | 0 mm | 1.79 m/s, 112° | - | - |
| 1777997455 | 22.22° C | 6% | - | 0 mm | 1.79 m/s, 90° | - | - |
| 1777997165 | 22.22° C | 6% | - | 0 mm | 1.79 m/s, 67° | - | - |
| 1777996878 | 22.22° C | 6% | - | 0 mm | 2.24 m/s, 90° | - | - |
| 1777996625 | 22.22° C | 6% | - | 0 mm | 2.68 m/s, 90° | - | - |
| 1777996406 | 22.22° C | 6% | - | 0 mm | 1.34 m/s, 67° | - | - |
| 1777996151 | 22.22° C | 6% | - | 0 mm | 2.68 m/s, 67° | - | - |
| 1777995877 | 22.22° C | 6% | - | 0 mm | 2.68 m/s, 112° | - | - |
| 1777995612 | 22.78° C | 6% | - | 0 mm | 3.13 m/s, 90° | - | - |
| 1777995345 | 22.22° C | 6% | - | 0 mm | 3.13 m/s, 67° | - | - |
| 1777995092 | 22.78° C | 6% | - | 0 mm | 2.68 m/s, 112° | - | - |
| 1777994844 | 22.78° C | 6% | - | 0 mm | 2.24 m/s, 112° | - | - |
| 1777994643 | 22.78° C | 6% | - | 0 mm | 2.68 m/s, 67° | - | - |
| 1777994568 | 22.78° C | 6% | - | 0 mm | 3.58 m/s, 90° | - | - |
| 1777994400 | 22.78° C | 6% | - | 0 mm | 4.02 m/s, 90° | - | - |
| 1777994141 | 22.78° C | 6% | - | 0 mm | 2.68 m/s, 90° | - | - |
* Rain latest hour (hover to see other rain measurements)
** Current wind speed in m/s (hover to see current wind gust speed)